Flag for U.S.A. Weather past 2 weeks in Bridgeport, Connecticut, U.S.A.

Now
74 °F

Sunny.


Feels Like: 77 °F
Forecast: 60 / 82 °F
Wind: No wind

Location: Sikorsky Memorial Airport

Current Time: Aug 28, 2015 at 8:44:31 PM

Latest Report: Aug 28, 2015 at 7:52 PM


Visibility: 10 mi

Pressure: 30.14 "Hg

Humidity: 57%

Dew point: 58 °F

Location of BridgeportLocation

Historic Weather in Bridgeport — Graph

°F

Bridgeport temperature yesterday

Maximum temperature yesterday: 82 °F (at 3:52 PM)
Minimum temperature yesterday: 62 °F (at 5:52 AM)
Average temperature yesterday: 72 °F

Past Weeks' High & Low Weather Summary

 TemperatureHumidityPressure
High90 °F (Aug 15, 3:52 PM)97% (Aug 21, 7:52 AM)30.18 "Hg (Aug 21, 7:52 AM)
Low62 °F (Aug 27, 5:52 AM)31% (Aug 14, 2:52 PM)29.81 "Hg (Aug 25, 4:52 PM)
Average77 °F69%30.02 "Hg
* Reported Aug 13 6:52 PM — Aug 28 6:52 PM, Bridgeport, Weather by CustomWeather, © 2015

Note: Actual official high and low records may vary slightly from our data, if they occured in-between our weather recording intervals... More about our weather records

Advertising

Bridgeport weather history for previous 24 hours

 ConditionsComfort  
Time TempWeatherWind HumidityBarometerVisibility
6:52 PM
Fri, Aug 28
76 °FSunny.7 mph50%30.13 "Hg10 mi
5:52 PM77 °FSunny.9 mph45%30.13 "Hg10 mi
4:52 PM78 °FSunny.9 mph40%30.13 "Hg10 mi
3:52 PM78 °FSunny.12 mph45%30.13 "Hg10 mi
2:52 PM77 °FSunny.12 mph45%30.15 "Hg10 mi
1:52 PM76 °FSunny.9 mph48%30.15 "Hg10 mi
12:52 PM75 °FPassing clouds.10 mph50%30.17 "Hg10 mi
11:52 AM74 °FSunny.10 mph53%30.18 "Hg10 mi
10:52 AM74 °FSunny.3 mph50%30.18 "Hg10 mi
9:52 AM73 °FSunny.6 mph51%30.17 "Hg10 mi
8:52 AM70 °FSunny.8 mph59%30.16 "Hg10 mi
7:52 AM66 °FSunny.9 mph68%30.15 "Hg10 mi
6:52 AM63 °FClear.7 mph73%30.14 "Hg10 mi
5:52 AM65 °FOvercast.5 mph68%30.13 "Hg10 mi
4:52 AM64 °FPassing clouds.6 mph70%30.11 "Hg10 mi
3:52 AM64 °FOvercast.6 mph73%30.11 "Hg10 mi
2:52 AM64 °FPassing clouds.5 mph73%30.11 "Hg10 mi
1:52 AM65 °FClear.7 mph70%30.11 "Hg10 mi
12:52 AM66 °FClear.9 mph70%30.12 "Hg10 mi
11:52 PM
Thu, Aug 27
67 °FClear.5 mph68%30.11 "Hg10 mi
10:52 PM69 °FClear.6 mph63%30.10 "Hg10 mi
9:52 PM71 °FClear.9 mph61%30.09 "Hg10 mi
8:52 PM72 °FClear.5 mph59%30.07 "Hg10 mi
Weather by CustomWeather, © 2015

See weather overviewHow to use our weather pages